Weather History for Jonesville, VA

Change the Weather History Date:

Sunday, November 10, 2013

  Actual Average (KLOZ) Record (KLOZ)
Temperature  
Mean Temperature 44 °F 50 °F  
Max Temperature 62 °F 61 °F 78 °F (2006)
Min Temperature 26 °F 38 °F 17 °F (1957)
Degree Days  
Heating Degree Days 21 16  
Month to date heating degree days 142  
Since 1 July heating degree days 448  
Cooling Degree Days 0 0  
Month to date cooling degree days 0  
Moisture  
Dew Point 27 °F    
Average Humidity 63    
Maximum Humidity 100    
Minimum Humidity 19    
Precipitation  
Precipitation 0.00 in 0.11 in 1.18 in (1987)
Month to date precipitation 1.13  
Sea Level Pressure  
Sea Level Pressure 30.29 in    
Wind  
Wind Speed 2 mph (WNW)    
Max Wind Speed 15 mph    
Max Gust Speed 21 mph    
Visibility 10 miles    
Events      
T = Trace of Precipitation, MM = Missing Value Source: NWS Daily Summary

Daily Weather History Graph

Daily Weather History Graph

Search for Another Location

Airport:

Trip Planner

Search our weather history database for the weather conditions in past years. The results will help you decide how hot, cold, wet, or windy it might be!

Date:

Astronomy

Nov. 10, 2013 Rise Set
Actual Time 7:05 AM EST 5:27 PM EST
Civil Twilight 6:38 AM EST 5:54 PM EST
Nautical Twilight 6:07 AM EST 6:25 PM EST
Astronomical Twilight 5:37 AM EST 6:56 PM EST
Moon 1:21 PM EST (11/10) No Moon Set
Length of Visible Light 11h 16m
Length of Day
10h 21m
First Quarter, 55% of the Moon is Illuminated
Nov 10
First Quarter
Nov 17
Full
Nov 25
Last Quarter
Dec 2
New
Dec 9
First Quarter

Hourly Weather History & Observations

Time (EST) Temp. Dew Point Humidity Pressure Visibility Wind Dir Wind Speed Gust Speed Precip Events Conditions
12:15 AM 32.0 °F 30.2 °F 93% 30.27 in 10.0 mi Calm Calm - N/A   Unknown
12:35 AM 32.0 °F 30.2 °F 93% 30.27 in 10.0 mi Calm Calm - N/A   Unknown
12:55 AM 32.0 °F 30.2 °F 93% 30.26 in 10.0 mi Calm Calm - N/A   Unknown
1:15 AM 32.0 °F 30.2 °F 93% 30.27 in 10.0 mi Calm Calm - N/A   Unknown
1:35 AM 30.2 °F 30.2 °F 100% 30.27 in 10.0 mi Calm Calm - N/A   Unknown
1:55 AM 32.0 °F 30.2 °F 93% 30.27 in 10.0 mi Calm Calm - N/A   Unknown
2:15 AM 28.4 °F 28.4 °F 100% 30.27 in 10.0 mi Calm Calm - N/A   Unknown
2:35 AM 28.4 °F 28.4 °F 100% 30.27 in 10.0 mi Calm Calm - N/A   Unknown
2:55 AM 28.4 °F 28.4 °F 100% 30.27 in 10.0 mi Calm Calm - N/A   Unknown
3:15 AM 28.4 °F 28.4 °F 100% 30.27 in 10.0 mi Calm Calm - N/A   Unknown
3:35 AM 28.4 °F 28.4 °F 100% 30.27 in 10.0 mi Calm Calm - N/A   Unknown
3:55 AM 28.4 °F 28.4 °F 100% 30.27 in 10.0 mi Calm Calm - N/A   Unknown
4:15 AM 28.4 °F 26.6 °F 93% 30.27 in 10.0 mi Calm Calm - N/A   Unknown
4:35 AM 28.4 °F 26.6 °F 93% 30.27 in 10.0 mi Calm Calm - N/A   Unknown
4:55 AM 28.4 °F 28.4 °F 100% 30.27 in 10.0 mi Calm Calm - N/A   Unknown
5:15 AM 28.4 °F 28.4 °F 100% 30.28 in 10.0 mi Calm Calm - N/A   Unknown
5:35 AM 28.4 °F 26.6 °F 93% 30.28 in 10.0 mi Calm Calm - N/A   Unknown
5:55 AM 28.4 °F 28.4 °F 100% 30.29 in 10.0 mi Calm Calm - N/A   Unknown
6:15 AM 28.4 °F 26.6 °F 93% 30.30 in 10.0 mi Calm Calm - N/A   Unknown
6:35 AM 26.6 °F 26.6 °F 100% 30.30 in 10.0 mi Calm Calm - N/A   Unknown
6:55 AM 26.6 °F 26.6 °F 100% 30.30 in 10.0 mi Calm Calm - N/A   Unknown
7:15 AM 28.4 °F 26.6 °F 93% 30.30 in 10.0 mi Calm Calm - N/A   Unknown
7:35 AM 28.4 °F 28.4 °F 100% 30.31 in 10.0 mi Calm Calm - N/A   Clear
7:55 AM 32.0 °F 28.4 °F 87% 30.32 in 10.0 mi Calm Calm - N/A   Clear
8:15 AM 32.0 °F 30.2 °F 93% 30.32 in 10.0 mi Calm Calm - N/A   Clear
8:35 AM 33.8 °F 32.0 °F 93% 30.32 in 10.0 mi Calm Calm - N/A   Clear
8:55 AM 35.6 °F 32.0 °F 87% 30.32 in 10.0 mi Calm Calm - N/A   Clear
9:15 AM 37.4 °F 32.0 °F 81% 30.33 in 10.0 mi Calm Calm - N/A   Clear
9:35 AM 41.0 °F 32.0 °F 70% 30.33 in 10.0 mi Calm Calm - N/A   Clear
9:55 AM 42.8 °F 33.8 °F 70% 30.33 in 10.0 mi Calm Calm - N/A   Clear
10:15 AM 48.2 °F 35.6 °F 62% 30.32 in 10.0 mi SW 5.8 mph - N/A   Clear
10:35 AM 50.0 °F 35.6 °F 58% 30.32 in 10.0 mi WSW 5.8 mph - N/A   Clear
10:55 AM 53.6 °F 37.4 °F 54% 30.32 in 10.0 mi Calm Calm - N/A   Clear
11:15 AM 55.4 °F 37.4 °F 51% 30.31 in 10.0 mi SW 8.1 mph - N/A   Clear
11:35 AM 55.4 °F 37.4 °F 51% 30.30 in 10.0 mi Calm Calm - N/A   Clear
11:55 AM 57.2 °F 32.0 °F 38% 30.29 in 10.0 mi West 10.4 mph 16.1 mph N/A   Clear
12:15 PM 59.0 °F 32.0 °F 36% 30.28 in 10.0 mi West 12.7 mph 17.3 mph N/A   Clear
12:35 PM 59.0 °F 32.0 °F 36% 30.27 in 10.0 mi West 15.0 mph 18.4 mph N/A   Clear
12:55 PM 60.8 °F 32.0 °F 34% 30.27 in 10.0 mi WNW 9.2 mph 16.1 mph N/A   Clear
1:15 PM 60.8 °F 30.2 °F 31% 30.26 in 10.0 mi West 12.7 mph 20.7 mph N/A   Clear
1:35 PM 62.6 °F 32.0 °F 32% 30.26 in 10.0 mi West 11.5 mph 18.4 mph N/A   Clear
1:55 PM 60.8 °F 30.2 °F 31% 30.25 in 10.0 mi WSW 10.4 mph - N/A   Clear
2:15 PM 62.6 °F 30.2 °F 30% 30.25 in 10.0 mi West 10.4 mph - N/A   Clear
2:35 PM 62.6 °F 26.6 °F 26% 30.25 in 10.0 mi WNW 10.4 mph 16.1 mph N/A   Clear
2:55 PM 62.6 °F 26.6 °F 26% 30.25 in 10.0 mi West 8.1 mph - N/A   Clear
3:15 PM 62.6 °F 19.4 °F 19% 30.25 in 10.0 mi WNW 10.4 mph 18.4 mph N/A   Clear
3:35 PM 60.8 °F 21.2 °F 22% 30.25 in 10.0 mi NW 9.2 mph 18.4 mph N/A   Clear
3:55 PM 59.0 °F 19.4 °F 22% 30.26 in 10.0 mi WNW 9.2 mph - N/A   Clear
4:15 PM 59.0 °F 19.4 °F 22% 30.26 in 10.0 mi NW 6.9 mph - N/A   Clear
4:35 PM 59.0 °F 17.6 °F 20% 30.27 in 10.0 mi NW 9.2 mph - N/A   Clear
4:55 PM 57.2 °F 17.6 °F 21% 30.27 in 10.0 mi NW 4.6 mph - N/A   Clear
5:15 PM 55.4 °F 17.6 °F 23% 30.28 in 10.0 mi WNW 5.8 mph - N/A   Clear
5:35 PM 53.6 °F 19.4 °F 26% 30.28 in 10.0 mi WNW 3.5 mph - N/A   Clear
5:55 PM 51.8 °F 19.4 °F 28% 30.29 in 10.0 mi NNW 5.8 mph - N/A   Unknown
6:15 PM 50.0 °F 21.2 °F 32% 30.29 in 10.0 mi NW 4.6 mph - N/A   Unknown
6:35 PM 50.0 °F 23.0 °F 35% 30.30 in 10.0 mi Calm Calm - N/A   Clear
6:55 PM 50.0 °F 21.2 °F 32% 30.31 in 10.0 mi NNW 5.8 mph - N/A   Clear
7:15 PM 50.0 °F 21.2 °F 32% 30.31 in 10.0 mi NNW 6.9 mph - N/A   Clear
7:35 PM 48.2 °F 21.2 °F 34% 30.31 in 10.0 mi NNW 4.6 mph - N/A   Unknown
7:55 PM 48.2 °F 21.2 °F 34% 30.32 in 10.0 mi NNW 6.9 mph - N/A   Unknown
8:15 PM 46.4 °F 21.2 °F 37% 30.33 in 10.0 mi Calm Calm - N/A   Unknown
8:35 PM 44.6 °F 23.0 °F 43% 30.33 in 10.0 mi Calm Calm - N/A   Unknown
8:55 PM 44.6 °F 23.0 °F 43% 30.33 in 10.0 mi Calm Calm - N/A   Unknown
9:15 PM 41.0 °F 23.0 °F 49% 30.34 in 10.0 mi Calm Calm - N/A   Unknown
9:35 PM 39.2 °F 24.8 °F 56% 30.34 in 10.0 mi Calm Calm - N/A   Unknown
9:55 PM 37.4 °F 24.8 °F 60% 30.34 in 10.0 mi Calm Calm - N/A   Unknown
10:15 PM 39.2 °F 24.8 °F 56% 30.34 in 10.0 mi Calm Calm - N/A   Unknown
10:35 PM 35.6 °F 24.8 °F 65% 30.35 in 10.0 mi Calm Calm - N/A   Unknown
10:55 PM 35.6 °F 24.8 °F 65% 30.34 in 10.0 mi Calm Calm - N/A   Unknown
11:15 PM 33.8 °F 26.6 °F 75% 30.34 in 10.0 mi Calm Calm - N/A   Unknown
11:35 PM 32.0 °F 24.8 °F 75% 30.34 in 10.0 mi Calm Calm - N/A   Unknown
11:55 PM 32.0 °F 24.8 °F 75% 30.33 in 10.0 mi Calm Calm - N/A   Unknown